Flag for Spain Weather past 2 weeks in Madrid, Spain

Now
32 °F

Clear.


Feels Like: 32 °F
Forecast: 40 / 70 °F
Wind: No wind

Location: Madrid / Barajas

Current Time: Mar 7, 2015 at 6:22:46 AM

Latest Report: Mar 7, 2015 at 5:00 AM


Visibility: 19 mi

Pressure: 30.54 "Hg

Humidity: 77%

Dew point: 26 °F

Location of MadridLocation

Historic Weather in Madrid — Graph

°F

Madrid temperature yesterday

Maximum temperature yesterday: 66 °F (at 5:00 PM)
Minimum temperature yesterday: 31 °F (at 8:00 AM)
Average temperature yesterday: 48 °F

Past Weeks' High & Low Weather Summary

 TemperatureHumidityPressure
High67 °F (Mar 1, 4:00 PM)97% (Mar 2, 8:00 AM)30.66 "Hg (Mar 2, 8:00 AM)
Low29 °F (Feb 20, 8:00 AM)15% (Mar 5, 5:00 PM)29.77 "Hg (Feb 21, 3:00 PM)
Average49 °F62%30.24 "Hg
* Reported Feb 20 5:00 AM — Mar 7 5:00 AM, Madrid, Weather by CustomWeather, © 2015

Note: Actual official high and low records may vary slightly from our data, if they occured in-between our weather recording intervals... More about our weather records

Advertising

Madrid weather history for previous 24 hours

 ConditionsComfort  
Time TempWeatherWind HumidityBarometerVisibility
5:00 AM
Sat, Mar 7
32 °FClear.No wind77%30.54 "Hg19 mi
4:00 AM35 °FClear.2 mph70%30.54 "Hg19 mi
3:00 AM37 °FClear.3 mph66%30.54 "Hg19 mi
2:00 AM37 °FClear.5 mph66%30.54 "Hg19 mi
1:00 AM40 °FClear.7 mph60%30.52 "Hg19 mi
12:00 AM40 °FClear.7 mph59%30.52 "Hg19 mi
11:00 PM
Fri, Mar 6
44 °FClear.2 mph47%30.49 "Hg19 mi
10:00 PM48 °FCool.3 mph38%30.46 "Hg19 mi
9:00 PM51 °FClear.No wind33%30.44 "Hg18 mi
8:00 PM56 °FClear.5 mph27%30.40 "Hg19 mi
7:00 PM62 °FSunny.7 mph23%30.37 "Hg19 mi
6:00 PM65 °FSunny.7 mph19%30.34 "Hg19 mi
5:00 PM66 °FSunny.8 mph24%30.33 "Hg14 mi
4:00 PM65 °FSunny.7 mph19%30.33 "Hg19 mi
3:00 PM64 °FSunny.7 mph23%30.36 "Hg19 mi
2:00 PM61 °FSunny.7 mph28%30.38 "Hg19 mi
1:00 PM59 °FSunny.3 mph25%30.42 "Hg19 mi
12:00 PM54 °FSunny.2 mph28%30.45 "Hg19 mi
11:00 AM49 °FSunny.2 mph39%30.48 "Hg19 mi
10:00 AM43 °FSunny.2 mph44%30.50 "Hg19 mi
9:00 AM36 °FPassing clouds.3 mph54%30.51 "Hg19 mi
8:00 AM31 °FSunny.7 mph62%30.52 "Hg19 mi
7:00 AM31 °FClear.6 mph58%30.50 "Hg19 mi
6:00 AM33 °FClear.5 mph52%30.50 "Hg19 mi
Weather by CustomWeather, © 2015

See weather overviewHow to use our weather pages